Simultaneous Nadir Overpasses (SNOs) Predictions

Prediction of SNOs between GOES-16 and METOP-B Satellite Orbit:

Table of predicted SNOs for the next 14.0 days since TLE Epoch: 4/20/2024
Index Date Time (GOES-16) GOES-16 Lat,Lon METOP-B Lat,Lon Distance(km) Time Diff (sec)
1 04/21/2024 02:08:09 -0.03, -75.20 0.78, -71.56 414.52 80
2 04/22/2024 14:26:59 0.03, -75.21 0.24, -76.13 104.20 80
3 04/23/2024 14:08:59 0.03, -75.22 -0.87, -71.13 465.26 80
4 04/25/2024 02:27:58 -0.03, -75.22 -0.13, -75.74 59.43 80
5 04/27/2024 14:23:27 0.02, -75.24 0.05, -75.31 8.56 80
6 04/30/2024 02:21:45 -0.01, -75.25 0.05, -74.92 37.03 80
7 05/01/2024 14:40:35 0.00, -75.27 0.91, -79.49 480.87 80
8 05/02/2024 14:22:34 0.00, -75.28 -0.17, -74.49 89.44 80
9 05/04/2024 02:41:32 -0.00, -75.29 -0.83, -79.10 433.33 80
